Regional Weather Roundup
Issued by NWS

Home | Current Version | Previous Version | Graphics & Text | Print | Product List | Glossary On
Versions: 1 2 3 4 5 6 7 8 9 10 11 12 13 14 15 16 17 18 19 20 21 22 23 24 25 26 27 28 29 30 31 32 33 34 35 36 37 38 39 40 41 42 43 44 45 46 47 48 49 50
000
ASUS44 KMEG 041500
RWRTN
TENNESSEE HOURLY STATE WEATHER ROUNDUP
NATIONAL WEATHER SERVICE MEMPHIS TN
1000 AM CDT FRI SEP 04 2015

TNZ002-004-019-021-049-052-054-088>092-041600-
WEST TENNESSEE

CITY           SKY/WX    TMP DP  RH WIND       PRES   REMARKS
MEMPHIS INTL   MOSUNNY   88  69  53 CALM      30.03R HX  92
NWS MEMPHIS      N/A     89 N/A N/A MISG        N/A
JACKSON        SUNNY     84  72  67 E5        30.04S
DYERSBURG      SUNNY     82  73  74 CALM      30.04S
PARIS          SUNNY     82  68  61 E5        30.05S
$$

TNZ008-025-027-028-033-062-065-066-041600-
NORTH MIDDLE TENNESSEE

CITY           SKY/WX    TMP DP  RH WIND       PRES   REMARKS
NASHVILLE      SUNNY     86  67  52 E3        30.06S
CLARKSVILLE    SUNNY     83  69  62 VRB3      30.05S
COOKEVILLE     SUNNY     82  72  69 CALM      30.07S
CROSSVILLE     SUNNY     81  66  60 E3        30.13R
$$

TNZ061-075-076-078-094-096-097-041600-
SOUTH MIDDLE TENNESSEE

CITY           SKY/WX    TMP DP  RH WIND       PRES   REMARKS
SHELBYVILLE    SUNNY     84  73  70 CALM      30.07S HX  91
$$

TNZ017-018-042-046-047-041600-
NORTHEAST TENNESSEE

CITY           SKY/WX    TMP DP  RH WIND       PRES   REMARKS
TRI CITIES     SUNNY     78  68  71 VRB3      30.11R
$$

TNZ012-013-036-069-073-074-041600-
CENTRAL EAST TENNESSEE

CITY           SKY/WX    TMP DP  RH WIND       PRES   REMARKS
KNOXVILLE      SUNNY     81  68  64 E5        30.07R
OAK RIDGE      SUNNY     83  67  58 E7        30.08R
GATLINBURG     SUNNY     81  66  61 CALM      30.07S
$$

TNZ083-085-099-041600-
SOUTHEAST TENNESSEE

CITY           SKY/WX    TMP DP  RH WIND       PRES   REMARKS
CHATTANOOGA    PTSUNNY   82  69  64 N10       30.05S
$$

SKY/WX REPORTED AS FAIR MEANS FEW OR NO CLOUDS BELOW
12 THOUSAND FEET.




USA.gov is the U.S. government's official web portal to all federal, state and local government web resources and services.